Location: St. Louis
(38.6270°N, 90.1994°W)
Time: 11:09:04
(UTC-06:00)

Explorer 11/Cluster Stage 4 - All Passes

Search period start: 06 December 2021 00:00
Search period end: 16 December 2021 00:00
Orbit: 467 x 1255 km, 28.8° (Epoch: 05 December)

Date Brightness Start Highest point End Pass type
(mag) Time Alt. Az. Time Alt. Az. Time Alt. Az.
06 Dec - 00:15:22 10° SSW 00:19:01 18° SSE 00:23:10 10° ESE night (unlit)
06 Dec - 02:01:32 10° SW 02:06:53 34° S 02:13:16 10° ESE visible
06 Dec - 03:49:12 10° WSW 03:55:17 36° S 04:02:17 10° ESE visible
06 Dec - 05:38:03 10° WSW 05:43:47 24° SSW 05:49:57 10° SSE visible
07 Dec - 00:03:57 10° SSW 00:07:33 19° SSE 00:11:42 10° ESE night (unlit)
07 Dec - 01:50:16 10° SW 01:55:24 33° S 02:01:36 10° ESE visible
07 Dec - 03:37:58 10° WSW 03:43:46 33° S 03:50:31 10° SE visible
07 Dec - 05:26:56 10° WSW 05:32:13 21° SSW 05:37:54 10° SSE visible
07 Dec - 23:52:35 10° SSW 23:56:08 20° SSE 00:00:12 10° ESE night (unlit)
08 Dec - 01:39:02 10° WSW 01:43:58 33° S 01:49:55 10° ESE night (unlit)
08 Dec - 03:26:47 10° WSW 03:32:16 31° S 03:38:41 10° SE visible
08 Dec - 05:15:56 10° WSW 05:20:39 19° SSW 05:25:45 10° SSE visible
08 Dec - 23:41:15 10° SSW 23:44:42 20° SSE 23:48:43 10° ESE night (unlit)
09 Dec - 01:27:51 10° WSW 01:32:33 32° S 01:38:14 10° ESE night (unlit)
09 Dec - 03:15:38 10° WSW 03:20:48 28° S 03:26:49 10° SE visible
09 Dec - 05:05:05 10° WSW 05:09:06 16° SSW 05:13:26 10° SSE visible
09 Dec - 23:29:58 10° SSW 23:33:20 20° SSE 23:37:13 10° ESE night (unlit)
10 Dec - 01:16:42 10° WSW 01:21:09 30° S 01:26:32 10° ESE night (unlit)
10 Dec - 03:04:33 10° WSW 03:09:20 25° SSW 03:14:55 10° SE visible
10 Dec - 04:54:30 10° SW 04:57:35 13° SSW 05:00:52 10° S visible
10 Dec - 23:18:43 10° SW 23:21:58 21° SSE 23:25:44 10° ESE night (unlit)
11 Dec - 01:05:34 10° WSW 01:09:47 28° S 01:14:51 10° ESE night (unlit)
11 Dec - 02:53:32 10° WSW 02:57:53 22° SSW 03:02:57 10° SE visible
11 Dec - 04:44:36 10° SW 04:46:05 11° SSW 04:47:37 10° SSW visible
11 Dec - 23:07:28 10° SW 23:10:38 21° SSE 23:14:14 10° ESE night (unlit)
12 Dec - 00:54:27 10° WSW 00:58:25 26° S 01:03:09 10° SE night (unlit)
12 Dec - 02:42:35 10° WSW 02:46:28 19° SSW 02:50:56 10° SSE visible
12 Dec - 22:56:15 10° SW 22:59:18 21° S 23:02:46 10° ESE night (unlit)
13 Dec - 00:43:23 10° WSW 00:47:04 24° S 00:51:25 10° SE night (unlit)
13 Dec - 02:31:45 10° SW 02:35:04 16° SSW 02:38:47 10° SSE night (unlit)
13 Dec - 22:45:04 10° SW 22:48:00 20° S 22:51:18 10° ESE night (unlit)
14 Dec - 00:32:20 10° SW 00:35:45 22° S 00:39:42 10° SE night (unlit)
14 Dec - 02:21:08 10° SW 02:23:41 14° SSW 02:26:29 10° SSE night (unlit)
14 Dec - 20:48:20 10° S 20:49:13 11° SSE 20:50:05 10° SSE night (unlit)
14 Dec - 22:33:52 10° SW 22:36:42 20° S 22:39:50 10° SE night (unlit)
15 Dec - 00:21:20 10° SW 00:24:26 19° S 00:27:56 10° SE night (unlit)
15 Dec - 02:11:00 10° SSW 02:12:19 11° SSW 02:13:41 10° S night (unlit)
15 Dec - 20:36:31 10° S 20:37:54 12° SSE 20:39:18 10° SE night (unlit)
15 Dec - 22:22:41 10° SW 22:25:25 19° S 22:28:23 10° SE night (unlit)
